Вернуться в каталог

FENGYUN 1C DEB

АктивенPO
NORAD 33663·DEBRIS·🇨🇳 China

Запущен May 10, 1999 с Taiyuan Satellite Launch Center

Loading…

Ближайшие Пролёты (ближайшие 24 часа)

TLE

УстаревающийSource: Space-Track

Эпоха: Sep 9, 2026, 07:52 UTC

1 33663U 99025DEY 26252.32821440  .00020757  00000-0  27980-2 0  9996
2 33663  98.8877 272.9540 0057990 249.9823 109.5135 14.78004565681803

Отслеживайте FENGYUN 1C DEB в реальном времени с AllMySat

Download on the App Store